Location: Acheville
(50.3840°N, 2.8827°E)
Time: 21:30:52
(UTC+00:00)

Cosmos 1408 - Visible Passes

Search period start: 24 May 2022 00:00
Search period end: 03 June 2022 00:00
Orbit: 449 x 485 km, 82.6° (Epoch: 24 May)

Date Brightness Start Highest point End Pass type
(mag) Time Alt. Az. Time Alt. Az. Time Alt. Az.
25 May 4.9 02:48:20 10° SE 02:51:17 23° E 02:54:13 10° NE visible
26 May 5.4 02:19:17 10° ESE 02:21:14 14° E 02:23:10 10° NE visible
28 May 3.5 02:51:31 10° S 02:55:00 47° E 02:58:30 10° NNE visible
29 May 4.5 02:21:46 10° SSE 02:24:50 26° E 02:27:54 10° NNE visible
30 May 5.2 01:52:30 10° SE 01:54:43 16° E 01:56:56 10° NE visible
31 May 2.5 02:55:06 10° SSW 02:58:42 81° W 03:02:19 10° N visible
01 Jun 3.2 02:24:53 10° S 02:28:24 54° E 02:31:55 10° NNE visible
02 Jun 4.2 01:55:00 10° SSE 01:58:09 29° E 02:01:19 10° NNE visible
